Tracking 22441 objects as of 1-Mar-2021
HD Live streaming from Space Station
objects crossing your sky now

INTELSAT 4-F1

Track INTELSAT 4-F1 now!
INTELSAT 4-F1 is classified as:


NORAD ID: 7815
Int'l Code: 1975-042A
Perigee: 36,047.1 km
Apogee: 36,113.1 km
Inclination: 12.2 °
Period: 1,450.8 minutes
Semi major axis: 42451 km
RCS: 12.6 m2 (large)
Launch date: May 22, 1975
Source: International Telecommunications Satellite Organization (ITSO)
Launch site: AIR FORCE EASTERN TEST RANGE (AFETR)
aabbcc
Your satellite tracking list
Your tracking list is empty




NASA's NSSDC Master Catalog

Two Line Element Set (TLE):
1  7815U 75042A   21059.83319369  .00000070  00000-0  00000+0 0  9994
2  7815  12.2014 322.6114 0007771 213.1229 146.8582  0.99258830102825
Source of the keplerian elements: AFSPC